GFSFLT2_250_spd_000.txt.gz
Wind_Speed
117 121 125 126 129 132 133 128 120 117 113 110 107 109 110 111 111 111 111 109 108 106 106 105 104 104 106
123 129 131 131 126 117 112 109 105 102 100 96 96 96 97 95 97 99 99 99 98 96 96 96 93 94 95
128 126 118 113 106 104 101 96 92 90 85 82 80 81 82 81 83 84 85 86 87 87 87 87 88 89 89
117 107 101 97 95 90 90 87 84 78 77 75 76 72 72 73 76 77 77 77 78 80 80 80 81 82 83
101 97 91 88 85 83 78 76 78 69 72 73 69 68 69 69 70 71 71 70 68 70 72 71 72 76 78
90 85 83 80 77 75 71 69 69 64 66 67 60 62 59 58 58 59 60 59 58 59 62 62 64 68 72
79 78 75 72 69 69 65 63 61 61 62 58 53 50 49 48 48 47 47 47 48 48 49 53 54 59 64
75 71 68 67 66 63 60 58 54 51 52 50 44 43 40 40 41 41 41 40 41 41 41 43 46 50 54
70 67 64 61 59 59 56 52 47 45 43 42 38 37 34 34 34 35 34 33 33 34 35 37 39 42 45
63 59 56 54 51 50 47 44 41 37 37 33 32 31 31 29 28 28 25 23 23 26 28 30 32 36 40
56 53 50 45 42 40 38 35 32 31 29 28 25 25 26 26 24 21 17 15 16 17 19 24 27 31 36
49 46 41 38 35 32 30 29 27 24 21 21 21 21 21 21 18 15 12 11 11 10 14 17 23 28 33
41 37 32 31 28 25 23 21 20 18 17 15 15 17 18 16 13 9 7 6 6 8 13 17 18 22 28
34 29 27 24 23 21 17 17 17 15 15 14 12 11 12 12 10 6 4 4 7 9 13 17 21 22 24
28 24 21 20 18 18 17 16 14 13 12 12 10 9 9 9 8 7 6 5 7 10 13 17 21 26 29
25 22 19 18 16 16 16 16 13 10 8 8 8 7 8 7 7 8 6 7 10 12 15 18 22 25 28
22 20 18 17 16 14 13 14 12 10 7 5 4 6 8 8 7 7 8 7 9 12 15 17 20 24 28

GFSFLT2_250_spd_003.txt.gz
Wind_Speed
115 120 123 125 126 128 129 127 122 122 119 115 110 106 105 106 107 108 108 110 109 108 108 108 112 114 116
121 125 128 128 122 116 112 108 104 103 103 100 98 98 100 100 100 100 100 100 102 102 101 100 100 103 104
123 117 112 110 105 102 99 98 96 95 94 90 88 88 89 88 87 87 87 87 87 90 89 88 89 88 90
108 103 100 98 95 91 91 89 86 86 81 78 78 79 75 74 76 77 77 77 77 79 80 80 80 80 80
98 95 92 88 86 84 80 78 77 74 69 75 69 70 69 70 69 69 69 69 70 71 73 73 74 75 75
89 86 85 80 78 74 69 67 68 63 66 69 63 64 63 63 62 61 60 60 59 60 62 64 66 68 68
85 83 79 74 71 66 63 60 59 60 61 58 58 56 55 53 50 49 49 49 50 50 51 53 56 58 61
78 75 71 68 64 61 58 55 51 52 52 51 50 46 43 41 39 40 41 41 41 42 43 44 47 50 54
71 68 64 61 59 56 54 52 47 45 42 41 40 37 36 35 34 35 34 34 36 36 37 38 40 43 47
64 60 58 55 52 50 47 45 41 38 38 37 35 32 31 30 28 29 26 28 30 31 34 35 35 36 39
59 55 51 47 44 42 41 40 38 35 35 33 30 27 24 24 22 21 21 21 21 23 27 28 29 31 32
53 48 45 42 40 38 36 35 37 33 31 27 25 23 22 20 20 16 15 15 14 16 20 23 25 27 28
45 43 40 37 35 34 32 31 30 27 24 22 20 19 20 21 17 14 12 11 9 11 13 16 19 22 24
41 38 34 33 31 29 28 25 24 23 21 20 18 15 15 17 16 11 8 6 5 6 8 10 15 19 22
37 34 33 31 27 25 24 23 21 19 18 17 14 13 13 13 12 7 4 3 2 3 5 8 13 18 24
35 33 29 27 24 22 21 21 18 15 14 13 12 11 10 10 10 5 2 2 3 5 6 11 13 16 22
32 30 27 22 20 20 18 18 16 13 11 11 10 10 10 10 9 5 1 1 3 7 8 10 15 18 22

GFSFLT2_250_spd_006.txt.gz
Wind_Speed
110 114 118 123 125 121 116 113 113 114 114 112 108 108 109 107 103 101 102 103 104 104 104 107 109 113 118
118 124 129 125 119 113 109 106 103 100 98 97 97 96 95 94 95 96 98 97 96 96 96 95 95 96 99
125 121 116 112 103 100 97 94 92 88 86 86 86 87 87 86 86 87 87 88 88 87 86 86 87 87 88
117 109 103 98 94 88 87 84 81 78 81 77 75 75 74 75 76 77 77 77 77 76 77 78 80 79 79
106 98 95 91 87 82 79 77 72 72 70 63 68 64 66 66 66 67 68 68 68 69 71 73 74 75 76
97 94 90 85 82 76 71 67 65 60 60 58 61 56 57 57 58 57 58 59 60 62 63 65 67 69 69
94 89 85 79 73 68 62 58 58 57 55 49 53 48 51 51 50 48 50 51 52 54 56 58 60 63 65
86 82 76 70 65 59 58 52 50 51 50 45 46 41 42 44 41 40 45 44 46 48 49 51 53 55 58
78 73 66 61 59 56 51 48 43 44 45 42 41 38 36 38 33 34 37 38 41 41 43 45 47 48 49
69 63 59 55 51 48 48 46 42 40 39 39 39 40 32 36 26 27 30 30 33 35 37 38 39 40 39
62 57 53 50 47 43 43 44 43 38 39 38 35 31 31 25 27 19 23 26 27 29 30 31 32 32 32
55 52 48 45 42 42 40 40 39 38 36 33 30 26 23 21 21 18 18 19 21 23 24 25 26 26 26
50 48 45 43 40 38 38 37 36 36 34 32 28 23 21 18 17 16 17 17 18 18 18 19 19 19 20
45 42 41 39 37 36 34 33 29 28 30 29 23 17 14 13 13 13 14 14 14 14 15 14 13 14 14
42 40 38 36 35 31 30 29 27 24 26 24 19 13 12 11 9 10 11 11 11 10 10 8 7 7 8
40 38 36 33 30 30 28 26 23 21 20 20 16 12 10 10 8 7 9 9 7 7 4 3 1 3 7
35 33 31 30 28 25 25 24 21 18 16 16 13 10 8 8 6 6 7 8 6 3 1 2 3 6 10

GFSFLT2_250_spd_009.txt.gz
Wind_Speed
106 111 116 120 124 128 128 122 117 113 109 106 105 105 103 105 105 104 102 100 100 99 100 103 107 112 114
113 118 124 129 131 122 115 110 101 97 97 98 97 95 96 94 96 96 94 92 90 91 90 91 93 97 100
120 127 130 126 115 110 102 95 93 90 88 82 83 85 85 86 85 85 84 82 81 81 81 82 82 84 87
129 127 119 112 103 94 92 88 83 83 78 75 76 73 73 74 74 75 74 73 71 71 71 72 74 76 78
122 114 106 97 93 89 82 81 77 76 72 66 69 64 64 66 68 69 67 66 65 65 65 66 67 69 71
108 100 98 95 90 84 79 75 74 67 66 56 60 59 57 57 58 58 59 59 59 59 60 60 62 65 67
102 98 95 87 83 80 74 67 59 59 63 53 50 48 46 49 50 50 49 50 51 52 54 56 58 60 63
99 92 84 80 75 72 66 61 53 49 54 51 48 39 42 40 40 40 43 46 45 46 49 50 50 52 55
89 82 76 71 66 64 58 53 50 42 47 43 44 40 41 39 35 30 37 39 40 41 42 43 44 44 45
80 72 66 60 55 53 51 50 46 41 40 39 37 38 31 32 31 26 31 32 34 35 36 37 38 41 42
70 64 58 52 48 46 45 44 43 36 39 37 35 30 32 28 28 24 24 27 29 31 32 34 37 39 38
61 56 52 48 43 40 42 38 39 36 34 32 31 28 26 25 24 24 24 25 25 25 27 29 30 32 33
53 49 46 45 42 37 36 34 33 32 29 30 29 26 25 22 22 22 22 19 18 19 21 22 22 23 24
48 44 43 40 38 35 31 30 27 28 27 27 25 22 21 20 19 18 16 14 16 17 17 18 16 17 18
45 41 39 37 33 32 28 26 26 22 23 24 22 20 18 17 15 13 11 14 14 12 13 14 13 13 12
39 37 34 32 28 25 24 22 22 21 20 20 18 18 16 13 10 9 9 12 12 9 10 12 10 6 4
37 36 34 30 25 21 22 21 21 17 18 18 14 14 13 9 5 6 6 8 8 7 8 8 5 2 3

GFSFLT2_250_spd_012.txt.gz
Wind_Speed
123 120 119 115 118 122 125 127 130 130 121 113 111 107 102 103 102 102 100 99 98 97 96 95 94 93 94
116 111 117 122 125 129 132 132 122 113 108 103 101 94 95 92 92 92 91 91 89 89 88 88 89 88 88
108 118 123 128 130 134 128 118 109 100 95 94 87 87 85 85 87 84 83 82 78 76 77 80 81 81 82
119 122 128 132 132 119 111 104 97 89 88 87 76 80 79 78 79 79 78 72 67 68 66 68 70 71 73
126 129 133 127 115 104 96 92 89 80 85 85 72 71 72 69 69 71 70 68 64 62 62 62 63 66 67
132 129 119 109 102 98 89 87 84 74 77 77 64 63 62 63 61 63 63 60 57 62 59 57 58 60 62
124 114 105 99 96 93 87 83 75 67 69 66 61 56 54 54 52 54 56 55 55 57 55 53 51 52 54
111 102 96 91 88 86 80 76 68 56 56 59 55 49 50 47 46 47 50 47 50 52 50 48 45 44 45
101 96 90 86 81 76 72 67 64 53 48 47 46 45 44 43 42 44 45 41 41 42 41 40 38 37 37
94 88 84 77 71 65 63 61 57 54 41 44 40 44 35 36 37 37 38 37 36 35 34 34 34 34 33
88 81 74 68 62 56 53 49 50 48 41 39 36 35 35 31 31 32 29 28 28 28 30 32 33 33 32
77 72 66 60 55 49 46 43 43 46 38 34 35 32 30 28 31 24 24 25 26 27 29 31 32 32 31
67 61 58 54 51 48 41 41 37 39 39 30 32 30 29 27 25 23 24 23 25 26 27 28 28 30 29
61 54 49 46 43 44 42 36 33 30 35 27 29 26 25 27 23 21 25 25 23 25 23 23 24 25 26
53 47 45 45 42 43 39 36 32 27 25 26 24 22 23 21 20 23 22 22 24 20 18 21 20 20 19
46 46 46 45 44 41 37 34 29 29 23 21 20 20 19 19 17 21 21 19 18 18 17 16 14 15 15
48 48 46 43 42 39 32 30 29 27 22 18 16 17 17 15 18 19 19 18 17 14 12 13 13 12 10

GFSFLT2_250_spd_015.txt.gz
Wind_Speed
107 112 116 120 120 120 113 111 117 122 125 128 129 126 117 109 105 103 103 100 97 95 92 91 90 90 91
114 119 122 122 117 112 118 123 127 129 128 124 116 110 103 98 96 97 94 91 89 85 82 81 82 84 85
119 122 121 116 117 122 127 131 133 126 118 108 105 101 95 88 87 86 84 82 77 75 75 73 73 77 79
121 118 115 121 125 129 133 135 125 106 101 97 93 89 82 82 81 78 75 73 69 65 64 64 66 69 71
117 115 122 126 132 135 128 110 107 93 89 87 82 79 74 73 73 71 70 66 63 59 57 56 59 61 61
119 123 129 134 133 120 106 99 91 81 79 84 71 71 67 68 66 64 62 60 58 57 54 53 51 51 53
125 132 134 129 114 106 95 86 81 75 71 75 61 65 61 62 59 58 55 53 54 54 53 52 51 50 49
133 132 123 109 101 92 86 83 75 66 62 67 57 59 55 56 55 53 50 49 48 49 46 46 47 47 46
130 117 107 97 88 86 80 73 72 64 56 56 51 54 48 52 51 48 45 45 44 45 42 40 40 41 40
113 102 93 86 82 75 70 68 65 65 52 53 46 46 48 43 45 42 41 39 40 42 39 39 38 37 36
99 91 85 79 72 67 62 57 58 57 52 49 43 42 43 45 34 39 36 35 36 34 33 32 33 34 33
89 84 76 69 64 59 53 51 49 52 51 47 45 40 40 39 35 30 30 30 32 27 26 29 30 29 29
83 75 67 62 57 53 48 48 49 48 49 48 42 36 37 33 31 26 30 24 24 28 28 27 27 27 28
73 67 63 58 53 51 51 49 46 44 43 44 37 33 34 29 28 25 22 25 23 22 24 26 27 27 28
64 60 57 58 56 54 48 44 42 40 35 37 33 31 29 27 23 23 26 20 24 26 25 22 23 24 26
59 59 59 56 55 49 45 41 37 33 29 29 29 26 24 24 21 17 19 22 22 21 21 23 22 23 22
58 55 52 49 48 42 37 33 29 25 22 21 21 21 20 18 20 18 17 20 19 20 22 21 19 17 17

GFSFLT2_250_spd_018.txt.gz
Wind_Speed
96 98 100 103 108 111 115 118 120 118 107 109 112 117 120 123 125 123 117 113 109 105 100 96 94 94 95
99 103 106 110 113 116 119 119 112 111 114 119 120 124 121 115 108 104 103 100 97 93 89 87 84 84 84
102 108 112 116 118 119 116 111 115 118 121 125 124 115 106 100 96 95 92 89 85 84 81 80 78 77 78
108 112 118 121 119 113 113 119 126 126 121 117 107 101 95 90 89 87 84 80 77 73 71 69 68 67 68
114 118 121 119 112 116 121 126 131 118 107 108 94 90 85 83 79 76 70 69 67 63 60 60 60 59 60
117 118 116 112 116 123 128 129 124 104 90 95 81 83 75 71 69 66 62 60 58 56 55 54 54 54 56
114 110 112 119 124 128 126 117 107 93 78 88 75 68 66 63 62 58 56 54 52 50 50 52 52 52 51
112 116 121 125 124 119 107 100 96 88 70 70 71 61 58 53 56 54 53 51 49 48 48 49 49 49 48
120 123 125 122 109 99 92 86 82 82 64 61 60 56 50 45 48 49 49 48 46 44 45 45 44 44 43
126 125 116 104 94 85 79 74 69 72 60 57 51 46 53 45 43 48 45 41 42 41 42 41 40 41 41
122 108 99 90 84 78 70 64 60 61 56 53 49 42 49 53 37 41 43 36 37 39 40 37 38 39 38
101 92 86 81 74 69 63 58 51 52 56 51 54 47 45 45 41 29 37 36 35 36 36 33 35 37 35
86 82 76 69 64 62 61 57 52 48 48 50 46 42 39 36 33 29 31 29 33 34 34 30 30 30 31
78 72 67 63 63 63 62 56 47 39 36 41 34 31 26 30 29 26 26 28 25 26 31 28 28 30 28
66 63 63 65 63 59 53 47 39 34 28 31 24 22 24 23 25 23 22 26 25 23 22 21 21 25 26
60 62 61 58 55 46 41 35 28 25 23 21 18 16 19 20 20 18 21 23 20 20 21 22 20 22 21
61 57 55 51 44 38 32 27 22 19 17 14 12 13 16 19 18 16 12 15 15 18 19 17 17 18 19

GFSFLT2_250_spd_021.txt.gz
Wind_Speed
95 99 102 104 105 107 108 109 111 111 110 113 116 119 124 120 113 115 117 119 121 123 123 121 117 115 114
91 94 97 100 101 102 106 109 109 113 115 119 122 124 116 115 118 120 121 122 120 114 108 103 101 99 97
90 93 96 99 99 101 104 107 113 117 120 124 119 116 118 120 119 119 114 108 103 98 94 92 88 86 85
90 93 95 96 97 100 107 114 121 124 121 114 118 118 119 116 109 104 100 97 90 87 85 82 79 77 76
92 94 96 101 105 111 115 118 121 114 115 118 116 116 112 101 95 93 91 89 82 79 75 71 70 68 68
93 98 103 109 113 114 108 107 115 121 115 111 105 103 97 90 86 83 83 77 70 68 65 62 61 60 60
101 107 108 109 102 106 110 113 116 112 101 97 97 93 86 83 73 69 70 65 58 58 58 56 55 54 54
109 105 101 104 106 110 110 109 106 100 86 86 88 83 78 71 59 58 60 56 48 49 48 49 50 50 51
101 104 108 110 108 105 101 96 93 91 80 73 74 67 70 65 53 46 50 49 46 47 48 47 47 47 47
111 112 110 105 98 92 86 84 80 77 72 68 64 56 61 61 47 39 46 50 48 46 44 44 45 44 44
113 109 101 93 87 83 76 69 67 67 65 61 64 58 52 58 42 43 46 50 48 42 40 41 40 38 40
99 93 88 83 78 72 67 65 62 56 58 54 55 48 46 45 44 36 40 45 43 35 37 39 34 32 37
86 81 77 72 66 66 64 60 56 48 47 50 44 38 37 38 35 33 33 34 34 36 35 32 30 30 34
75 72 67 64 63 62 61 57 51 46 40 41 34 33 32 30 27 27 28 27 33 31 29 28 23 29 31
66 62 60 61 58 57 53 48 43 41 36 33 30 27 24 24 22 21 23 24 23 23 25 24 23 30 31
56 56 57 55 55 48 43 40 35 32 29 26 25 21 18 16 15 15 16 17 19 21 24 23 23 29 29
53 53 51 50 46 39 36 32 28 25 22 19 15 12 11 12 11 11 15 18 19 21 21 22 23 24 25

GFSFLT2_250_spd_024.txt.gz
Wind_Speed
82 84 86 88 90 95 100 102 103 104 103 102 102 101 102 101 101 101 104 109 113 117 121 126 128 127 123
84 86 85 86 86 87 89 94 98 102 102 103 104 104 104 103 106 109 114 118 123 127 130 126 120 120 123
79 78 77 79 78 80 83 88 93 98 101 102 104 107 110 113 117 120 123 124 122 122 125 124 123 122 120
75 76 78 80 81 83 87 93 96 102 106 107 113 117 120 122 121 118 116 118 121 124 125 118 110 103 98
82 84 85 88 91 94 96 101 107 112 111 110 112 112 115 116 117 117 116 112 109 109 107 98 92 89 85
89 90 92 95 97 97 96 97 100 110 105 108 111 113 117 115 110 103 97 92 91 94 93 85 81 77 73
93 95 92 94 97 101 103 103 106 109 107 103 103 102 100 99 96 86 81 77 76 81 79 74 70 67 63
97 98 101 103 103 104 104 103 102 100 96 89 91 90 88 91 85 73 66 63 65 71 71 64 62 59 55
104 105 106 106 103 100 98 94 91 91 87 78 81 77 76 83 76 67 60 63 67 67 64 57 54 51 49
110 109 106 101 97 91 87 83 81 78 79 70 73 72 68 75 70 61 54 60 62 60 56 49 48 48 51
108 102 98 93 88 82 77 72 69 66 66 66 70 68 62 62 64 53 50 55 54 53 49 44 47 50 52
97 92 89 83 77 74 68 64 62 58 62 59 56 53 52 51 48 45 45 46 45 43 40 39 45 48 49
88 83 76 72 67 66 64 62 58 55 53 50 49 45 44 41 39 39 38 39 37 36 35 37 39 38 38
77 70 66 63 62 63 60 58 54 48 45 41 40 37 35 33 32 31 29 30 28 28 28 28 30 33 35
65 61 60 60 58 54 55 51 47 43 38 35 32 30 28 26 26 24 22 24 26 27 27 24 24 29 32
55 54 55 55 51 50 48 43 38 34 33 31 28 26 25 24 22 21 21 23 23 24 23 20 20 27 26
50 51 51 47 47 45 40 36 33 30 28 27 27 26 24 21 19 19 19 18 19 21 20 21 20 25 27

GFSFLT2_250_spd_027.txt.gz
Wind_Speed
84 86 87 87 85 83 83 82 82 83 83 84 84 84 84 86 87 89 91 94 98 102 104 105 105 105 106
84 79 79 80 77 78 81 83 83 85 87 86 87 88 89 91 92 93 96 97 100 102 105 106 108 109 109
75 78 80 83 83 85 86 88 90 93 94 93 94 95 98 100 101 103 105 107 107 108 112 114 116 118 119
82 83 85 88 89 90 92 94 92 96 97 97 99 101 105 104 106 109 111 112 112 114 116 119 120 120 118
90 92 92 95 94 91 89 92 98 102 101 103 103 103 106 106 107 108 109 108 108 109 112 114 117 118 116
98 97 94 93 94 96 99 100 104 109 105 107 103 102 102 102 100 98 96 94 92 91 93 97 100 99 97
96 95 96 100 102 104 105 105 106 103 98 100 93 94 94 93 92 87 82 77 75 76 80 85 88 87 83
100 102 105 109 108 106 104 102 100 98 92 86 86 86 85 86 84 77 68 64 64 66 71 75 77 75 71
106 110 113 112 107 104 99 95 92 91 86 78 81 75 73 77 76 69 63 63 64 67 67 67 66 60 60
113 116 114 111 104 95 90 86 81 78 78 73 72 66 70 72 69 64 61 58 59 59 58 55 52 52 53
118 117 111 101 93 87 80 75 72 68 65 64 65 64 62 64 61 56 51 48 47 46 46 44 42 41 44
115 107 99 92 84 79 73 68 60 61 62 59 59 55 53 51 51 47 45 40 37 35 33 32 32 35 39
100 93 87 79 72 70 64 60 60 55 57 53 50 47 45 43 40 39 37 35 33 30 28 27 27 30 33
88 80 74 67 63 59 59 61 57 51 46 46 44 41 39 37 38 36 34 32 28 26 23 23 24 27 29
74 67 64 60 54 55 57 55 51 50 43 37 36 37 35 37 34 33 33 32 30 25 22 21 22 24 25
60 57 54 52 52 52 50 47 46 41 39 37 36 32 29 28 31 30 28 26 26 23 20 18 23 24 24
49 48 48 50 49 47 45 41 37 33 34 36 34 32 30 26 24 23 26 29 28 26 23 21 22 25 25

GFSFLT2_250_spd_030.txt.gz
Wind_Speed
83 83 82 87 90 88 91 88 83 85 84 82 82 82 83 83 84 86 89 91 93 95 95 94 93 93 92
82 80 83 83 86 90 88 87 86 86 86 84 82 83 86 89 92 95 98 100 102 103 103 102 102 101 98
75 79 84 86 86 83 88 91 90 87 84 87 90 93 96 98 102 106 107 108 107 109 109 110 110 110 108
85 85 87 85 84 88 88 90 89 92 95 99 103 105 104 105 107 105 104 104 103 103 104 107 108 109 109
89 94 87 85 90 91 89 92 98 102 105 112 112 111 108 106 101 96 93 92 91 91 91 93 97 101 104
100 94 92 94 94 95 96 98 104 113 115 120 115 113 102 96 91 86 81 78 76 77 80 84 87 89 92
96 100 97 97 98 99 104 108 113 118 117 117 104 99 93 89 81 75 71 69 68 69 72 76 79 80 80
103 100 100 101 102 106 111 116 119 121 105 101 97 89 87 81 75 71 68 65 64 64 63 63 63 66 68
103 102 104 108 110 114 119 120 121 113 95 91 84 79 79 72 68 68 65 63 61 59 57 57 57 57 58
104 106 110 115 118 120 121 119 106 96 88 83 77 67 75 73 64 62 60 54 53 51 50 48 47 49 51
109 113 116 118 122 121 109 98 90 82 74 72 70 67 66 64 61 55 50 47 42 43 43 42 41 41 42
113 117 119 120 111 100 91 85 77 70 67 62 65 63 60 58 53 47 41 42 38 35 33 33 34 33 34
117 117 109 100 93 86 79 75 68 59 56 59 58 56 51 48 48 45 43 36 37 32 30 28 28 26 25
104 96 91 83 78 74 70 63 58 54 54 53 50 46 44 44 43 37 39 36 31 28 26 27 25 24 22
85 79 75 72 66 60 56 54 55 57 54 48 41 37 33 32 44 31 33 35 30 27 24 25 23 20 20
70 68 65 60 53 50 51 52 53 48 46 44 39 36 29 21 31 37 30 34 35 30 25 22 24 21 19
60 57 53 49 49 51 51 50 46 42 37 35 34 32 33 29 23 28 30 31 30 29 27 23 21 22 20

GFSFLT2_250_spd_033.txt.gz
Wind_Speed
87 87 89 90 90 91 81 78 79 80 83 84 86 87 86 88 85 84 80 81 83 84 87 91 94 97 99
92 90 91 94 90 89 80 80 81 87 90 89 89 88 89 84 83 84 87 88 91 94 98 102 104 108 110
86 91 95 94 93 80 81 92 96 95 93 94 92 87 85 87 90 92 91 91 96 100 102 104 106 109 111
93 96 96 97 83 85 90 94 96 99 98 93 92 94 95 98 96 92 93 94 96 95 95 95 95 96 97
95 94 91 85 84 90 94 97 99 98 95 102 100 104 106 102 97 92 93 91 89 87 86 85 86 86 85
94 94 87 90 91 91 96 96 96 102 101 109 107 114 111 104 95 91 87 83 80 76 75 74 74 75 77
87 88 93 96 97 99 101 98 103 108 107 111 115 122 117 108 91 86 81 76 73 69 65 65 64 66 68
91 95 97 97 98 98 103 105 109 113 109 115 122 122 115 99 85 77 72 69 64 66 66 64 62 63 64
97 96 95 96 100 104 107 111 113 116 112 118 117 105 99 84 75 69 63 63 65 61 59 59 57 57 55
95 97 99 102 105 109 110 112 114 116 110 104 97 85 83 78 67 59 59 60 60 56 52 52 49 49 47
97 99 102 106 107 110 112 113 110 99 91 85 82 78 70 68 68 63 63 55 50 50 45 44 45 43 42
100 101 103 106 110 110 105 96 89 81 75 70 68 64 63 65 68 65 60 47 45 47 40 37 41 40 40
100 103 106 107 100 93 88 80 73 65 58 58 60 61 60 59 58 58 57 46 39 41 34 34 36 33 33
101 102 95 88 85 78 73 66 59 51 50 55 55 56 54 49 46 52 49 45 41 33 33 32 34 30 30
93 85 83 76 68 64 58 55 53 55 54 53 51 48 45 37 44 40 44 41 41 38 34 30 30 27 28
79 75 69 63 57 51 52 52 53 53 52 51 48 43 37 26 35 36 38 38 36 36 33 29 27 26 24
68 63 59 53 48 48 50 51 51 49 44 43 42 37 35 31 30 33 30 30 30 29 28 27 25 25 24

GFSFLT2_250_spd_036.txt.gz
Wind_Speed
90 93 92 97 94 96 96 95 94 94 92 84 82 79 78 79 84 87 86 87 88 87 84 82 83 85 87
95 97 98 100 97 96 104 101 99 96 89 85 82 82 81 88 88 89 90 88 84 83 85 88 89 91 96
99 96 93 95 99 101 99 100 100 96 93 91 85 89 92 91 90 88 86 86 86 88 91 94 98 101 104
96 97 100 98 97 97 101 106 100 96 89 90 92 91 89 88 90 90 88 89 91 94 98 101 102 103 103
95 97 92 96 98 99 101 100 98 97 94 96 93 90 92 95 96 94 94 95 96 99 100 97 93 90 87
89 91 91 91 91 92 91 94 95 102 101 100 96 102 103 103 103 97 95 95 94 95 89 85 81 79 76
83 84 85 86 87 88 93 95 97 102 97 100 104 107 108 109 104 98 91 89 88 83 79 76 75 73 69
74 78 81 86 91 94 99 101 101 101 98 102 107 109 113 111 102 90 85 83 78 74 71 68 66 63 64
82 85 88 93 96 98 97 96 98 103 102 105 106 107 111 105 91 81 74 72 67 64 61 60 62 65 63
87 91 94 95 94 93 96 99 101 102 101 105 102 95 97 94 79 70 64 60 57 56 59 56 55 63 54
91 92 95 96 97 97 97 96 97 97 97 94 92 87 80 75 74 60 57 60 57 56 51 49 51 49 52
96 96 95 94 94 94 95 97 96 87 82 82 77 72 66 65 66 65 61 60 56 52 47 40 40 45 44
95 95 95 96 98 96 92 85 79 77 70 63 61 64 59 61 65 62 61 60 49 45 42 38 37 39 40
97 96 94 91 85 79 75 75 71 61 53 51 57 59 60 57 56 56 52 50 49 42 41 39 38 37 38
87 82 78 74 72 72 69 63 57 51 44 49 54 55 52 47 49 45 47 41 41 43 40 38 40 36 35
76 72 68 68 66 60 56 52 48 44 46 50 52 50 44 35 41 40 38 39 38 39 41 40 33 38 33
68 67 65 60 54 50 46 43 41 44 45 47 47 43 42 35 28 36 36 35 34 32 33 35 35 29 31

GFSFLT2_250_spd_039.txt.gz
Wind_Speed
80 80 83 95 93 92 96 96 96 97 100 104 105 104 101 99 97 91 90 82 76 75 77 81 83 86 89
99 98 102 102 104 101 106 104 104 104 104 105 106 105 105 105 100 94 90 85 81 83 84 88 89 89 88
104 108 106 100 98 97 98 100 100 104 108 106 106 106 104 102 97 88 85 83 87 88 89 87 88 90 92
93 95 99 99 100 101 103 102 103 105 106 106 106 98 91 87 87 88 89 88 89 88 87 90 93 95 98
90 91 99 99 97 100 102 103 103 105 97 93 94 89 88 89 89 90 90 89 89 91 93 95 98 101 102
88 90 91 99 102 97 95 90 90 90 83 84 87 89 92 93 94 94 93 93 94 94 96 99 101 102 99
89 92 90 88 85 85 88 87 90 93 90 95 93 94 97 95 94 95 95 93 93 95 97 97 96 92 87
73 80 81 81 82 84 88 90 92 92 91 98 95 97 100 98 96 94 93 92 91 90 88 87 82 78 75
67 73 79 83 87 91 93 94 95 94 94 97 95 95 99 97 97 94 89 84 82 81 76 72 68 65 66
77 82 85 89 92 94 95 95 95 95 93 96 94 93 102 100 94 84 78 75 71 66 63 62 63 63 65
80 85 89 92 93 95 96 97 96 96 94 95 94 85 81 80 86 75 66 61 57 57 56 58 59 59 60
87 91 94 96 98 97 97 97 93 86 79 75 75 74 74 73 70 64 57 55 52 55 56 55 52 50 49
90 93 96 95 93 88 82 79 75 72 69 67 69 68 66 63 60 54 55 61 50 51 53 47 42 43 41
90 88 83 79 77 74 71 68 66 66 65 62 59 58 59 54 51 54 56 58 54 43 46 39 33 39 38
81 77 73 69 66 65 64 63 63 60 54 50 50 52 52 49 53 52 55 50 46 40 38 37 31 36 38
74 68 64 63 62 61 60 57 54 50 47 43 43 47 48 48 46 50 43 41 37 35 36 38 34 34 35
66 62 62 61 57 54 49 46 46 44 41 39 40 46 49 46 33 39 35 32 34 31 34 34 33 30 32

GFSFLT2_250_spd_042.txt.gz
Wind_Speed
74 73 73 80 82 86 87 87 89 86 94 99 106 102 103 109 102 98 99 99 99 99 97 97 93 86 79
75 73 77 94 91 94 95 94 95 99 102 106 108 110 116 111 105 104 105 105 102 103 101 98 86 80 74
84 86 91 100 102 103 104 106 109 110 114 114 115 114 112 109 105 104 101 104 92 84 81 78 76 75 75
80 87 91 96 99 99 100 104 105 111 110 111 111 110 107 105 103 93 82 78 79 79 78 80 82 84 86
74 79 85 92 94 98 102 102 103 105 105 108 110 108 106 98 86 83 83 83 82 83 85 86 87 87 88
66 70 76 80 85 90 94 97 101 105 103 108 102 100 94 90 87 86 86 85 85 86 86 86 87 88 90
54 58 63 69 77 82 87 90 93 89 83 88 85 89 89 89 87 87 86 86 86 85 86 87 89 91 93
52 59 65 69 71 71 73 78 80 80 82 88 86 88 91 90 90 90 90 89 88 88 89 90 91 93 94
49 55 60 64 69 73 77 81 84 85 86 92 91 94 96 93 92 91 90 89 90 89 86 85 85 83 84
57 62 67 72 77 82 86 89 92 95 94 97 95 96 101 96 93 88 85 82 79 76 74 75 74 73 74
66 71 77 82 86 90 94 97 98 99 96 95 93 89 87 89 88 78 73 71 68 67 69 67 63 58 62
73 77 80 84 88 92 93 91 87 84 80 79 82 80 76 73 75 75 70 65 60 59 56 53 50 56 58
75 78 80 80 78 78 78 79 79 75 71 67 67 68 67 66 69 66 63 55 49 47 44 46 51 51 53
77 74 73 75 74 73 71 70 67 64 61 61 62 63 63 61 59 57 50 47 46 40 43 47 43 44 47
74 74 74 71 67 64 62 63 63 61 58 55 53 52 53 54 50 47 43 44 46 47 42 42 36 38 38
73 72 69 66 62 60 59 59 58 55 53 48 45 45 47 52 42 44 39 49 43 39 39 38 31 33 34
73 69 67 64 60 56 54 52 52 51 49 44 39 37 43 48 43 37 44 42 39 35 33 33 29 28 31

GFSFLT2_250_spd_045.txt.gz
Wind_Speed
86 74 68 71 75 75 78 86 79 86 83 90 94 95 91 92 92 91 91 99 100 95 99 104 103 100 95
90 76 72 72 76 76 85 85 91 92 93 99 103 103 101 100 101 102 95 99 103 109 108 107 103 100 93
83 79 76 77 78 75 83 86 90 99 100 101 104 103 106 106 107 107 109 112 113 112 112 108 104 97 94
72 75 74 76 72 77 82 88 91 97 101 100 102 105 108 111 115 115 113 114 116 115 112 106 97 90 83
57 69 71 70 71 77 83 88 95 101 103 108 108 114 115 117 113 112 113 117 112 109 102 97 88 84 84
37 50 53 59 62 69 74 78 89 98 104 109 111 114 111 107 106 102 102 99 96 91 88 87 86 86 87
19 22 27 34 40 50 54 62 67 72 78 84 83 86 89 90 91 91 90 90 90 90 90 89 88 87 88
28 30 33 37 43 49 53 59 63 67 74 78 82 86 88 89 91 91 90 89 88 88 89 89 90 90 92
38 40 45 48 54 59 63 68 71 74 79 86 87 91 93 92 91 91 91 90 89 89 88 89 89 88 88
47 50 54 58 63 67 71 76 80 84 86 91 91 94 96 92 90 89 87 85 85 84 83 82 80 77 77
56 59 63 66 69 72 77 81 84 87 87 88 87 86 89 93 87 85 82 81 78 74 73 72 71 70 72
64 67 69 71 74 76 79 80 79 77 77 79 82 79 79 79 79 75 70 70 67 65 66 64 64 64 62
71 73 75 74 75 77 74 73 75 74 73 70 70 70 70 69 71 71 66 64 58 57 57 54 52 49 52
74 76 76 76 73 71 72 72 71 66 62 60 60 61 62 60 61 62 54 54 46 41 44 45 41 42 49
76 75 75 71 70 70 69 67 63 61 56 52 52 52 53 53 52 52 50 43 39 40 36 38 37 43 50
75 73 69 69 69 66 63 60 60 57 54 48 45 45 46 50 45 49 42 36 35 37 40 41 42 37 42
72 69 69 68 66 61 57 56 55 53 50 46 42 38 40 44 44 38 38 35 38 45 41 40 38 32 35

GFSFLT2_250_spd_048.txt.gz
Wind_Speed
68 71 75 81 83 83 83 77 76 76 83 89 81 80 77 82 84 86 91 92 90 90 88 90 93 93 94
59 64 61 69 77 83 84 79 82 75 83 80 81 86 89 91 90 89 93 95 100 99 100 103 103 100 100
45 48 48 50 63 77 78 78 78 77 82 88 83 86 97 99 98 99 102 103 103 103 102 105 105 101 99
32 33 38 43 53 62 69 71 76 79 84 90 92 92 96 99 102 104 106 107 108 110 114 115 113 113 109
28 27 26 35 47 57 63 70 73 77 83 90 90 93 95 99 104 108 111 110 109 110 113 117 117 115 115
29 26 22 22 24 29 37 41 48 58 70 78 82 88 94 101 104 104 105 112 114 115 117 119 118 116 117
39 35 31 28 27 29 31 34 39 42 48 58 55 65 67 72 78 84 87 92 99 100 104 104 101 97 96
50 47 43 41 41 42 44 47 51 54 59 63 66 69 71 74 78 81 84 87 90 92 93 95 97 97 98
54 51 49 49 51 54 56 60 63 66 71 74 77 79 81 83 86 87 88 90 91 92 93 94 95 96 96
59 56 55 55 56 60 63 65 68 71 75 81 84 86 88 89 90 91 92 93 92 91 89 90 89 89 88
65 64 64 66 67 67 68 71 74 77 78 80 84 85 87 87 86 85 87 88 88 87 86 85 82 80 78
70 71 71 71 72 73 74 77 78 77 77 77 78 76 78 82 83 79 78 77 75 73 71 71 71 69 68
75 76 75 74 75 76 77 75 74 72 72 74 76 75 74 73 75 74 71 67 66 64 61 62 62 60 59
78 77 75 75 76 75 73 71 72 72 72 69 67 65 63 62 62 69 64 62 55 47 49 52 52 50 49
78 75 74 74 72 70 70 72 72 68 63 57 57 57 56 56 57 59 60 56 48 43 39 42 46 43 42
75 74 73 69 69 71 71 69 65 60 58 52 47 45 46 50 50 52 51 48 42 36 33 35 42 34 34
73 72 69 70 72 70 65 60 57 54 51 45 41 41 43 44 45 41 42 38 34 31 31 35 44 39 35

GFSFLT2_250_spd_051.txt.gz
Wind_Speed
76 77 66 54 47 50 57 68 66 66 69 76 70 70 77 81 79 71 72 78 78 75 75 76 77 75 75
69 71 63 48 39 36 38 50 59 62 68 70 72 73 77 80 81 79 76 84 80 81 79 83 86 88 86
62 65 60 49 40 32 28 35 45 56 64 71 73 81 81 84 85 85 85 87 89 93 96 92 94 92 94
57 56 55 53 49 42 34 30 37 48 61 68 75 78 79 82 85 92 94 98 100 101 101 100 99 103 103
60 58 55 49 43 41 37 32 29 31 37 51 66 77 81 80 86 92 96 100 102 102 101 105 107 110 111
61 61 61 56 51 44 39 36 35 34 32 34 41 48 54 64 72 88 97 104 102 101 101 104 109 113 117
64 65 63 59 56 53 49 46 43 41 43 48 45 51 53 57 62 65 70 77 82 89 95 101 104 102 103
67 67 64 60 57 54 53 53 54 55 57 61 59 61 63 66 70 73 75 78 80 83 85 87 89 90 92
68 67 63 59 59 59 60 60 61 60 61 64 67 71 73 77 80 82 83 85 87 88 89 89 91 93 95
68 65 63 65 65 67 69 69 68 68 69 72 73 75 76 79 82 84 86 88 90 90 90 90 89 90 91
65 66 68 70 72 75 76 74 73 72 71 72 73 72 74 76 77 78 79 80 81 81 82 82 83 85 87
67 69 72 75 78 81 79 76 73 71 70 69 70 70 72 75 78 75 76 76 76 77 76 75 77 80 81
71 74 77 79 83 83 77 74 72 70 69 70 71 73 73 73 73 72 69 66 68 68 65 65 68 70 69
74 77 80 83 85 78 75 74 72 70 72 70 67 65 65 64 66 67 58 59 58 56 57 60 60 62 60
77 80 83 86 81 76 74 72 71 72 68 62 60 59 58 58 57 54 52 48 46 43 42 48 51 51 52
79 82 85 83 76 72 70 69 72 69 63 57 50 46 49 50 46 46 45 44 39 36 35 34 40 40 42
82 84 84 77 71 69 67 69 67 62 56 47 44 42 42 43 44 36 39 40 38 35 29 27 34 34 32

GFSFLT2_250_spd_054.txt.gz
Wind_Speed
60 59 61 64 66 68 67 62 58 42 34 38 54 65 66 65 71 72 80 76 74 77 77 75 73 72 73
59 59 61 64 67 68 64 58 55 51 39 34 36 51 56 63 68 72 79 79 79 85 87 82 85 76 76
57 57 61 64 65 64 64 60 51 42 39 35 31 38 50 55 61 64 74 83 85 86 92 91 89 85 85
57 58 60 63 65 64 60 56 52 47 39 34 33 32 36 50 63 66 70 78 82 84 88 94 93 90 88
58 60 63 65 65 63 60 56 50 45 42 40 38 37 36 36 42 51 61 73 77 81 85 91 93 94 94
60 62 66 66 65 63 59 53 52 51 51 48 48 47 45 47 47 48 49 58 68 72 78 86 91 95 98
61 64 66 67 66 63 57 54 54 53 56 59 56 58 56 57 58 59 61 61 63 66 72 76 81 88 92
61 64 66 66 66 62 58 59 60 59 61 64 65 66 65 66 68 68 69 71 73 75 77 78 79 82 84
62 65 66 66 64 62 64 65 66 66 68 71 72 69 67 66 67 69 71 74 76 78 80 82 84 85 87
63 64 63 62 64 68 70 71 71 72 74 77 72 66 65 65 66 67 67 70 74 77 79 80 81 82 83
59 61 64 68 70 71 73 74 76 76 79 78 72 67 65 65 64 64 67 69 72 74 75 75 76 78 80
62 65 67 69 71 74 76 78 80 81 79 75 70 66 64 64 69 67 66 67 67 68 69 71 72 74 77
63 66 70 73 76 78 79 81 82 79 75 69 66 64 66 68 67 62 59 57 55 56 55 58 61 63 66
68 71 75 78 79 81 81 81 79 74 70 66 63 64 66 63 60 57 50 50 43 40 44 49 50 50 53
73 76 79 82 82 83 80 77 73 71 66 61 60 63 63 58 55 50 47 43 41 40 39 44 48 49 49
78 80 83 84 85 81 76 71 70 68 64 61 59 57 55 53 46 46 44 42 40 39 37 39 44 45 45
83 85 86 86 84 78 71 68 66 63 63 61 55 53 50 49 42 37 39 38 37 37 36 37 39 37 38

GFSFLT2_250_spd_057.txt.gz
Wind_Speed
80 70 68 64 58 55 56 57 61 63 62 62 54 48 39 30 26 40 50 69 70 73 73 75 72 72 69
70 68 64 60 55 55 56 58 61 61 58 54 52 44 36 30 27 26 41 60 64 72 75 73 75 80 80
67 64 61 55 54 55 56 59 61 61 58 50 43 42 40 34 32 31 33 39 53 64 75 79 79 78 78
62 60 56 53 53 55 58 59 61 59 56 48 46 44 41 39 38 37 37 38 44 56 68 76 84 90 89
57 55 52 52 52 56 58 61 61 59 56 49 47 47 47 48 48 45 44 47 49 49 55 75 89 89 91
53 51 51 51 52 55 59 61 61 60 56 53 55 54 54 54 54 55 57 57 55 58 60 60 63 73 85
50 49 50 52 54 57 60 60 58 57 61 62 61 60 60 60 62 63 64 64 63 64 65 68 70 70 73
48 49 51 54 56 58 57 57 60 62 65 67 67 66 66 67 68 70 71 70 66 63 64 68 71 75 78
48 49 51 53 54 56 59 61 62 65 68 70 70 71 71 72 73 73 68 64 63 63 64 65 67 70 75
45 48 51 54 55 57 60 63 66 69 72 74 74 76 76 75 72 68 63 59 57 58 60 63 65 69 72
49 50 52 54 56 60 64 67 69 72 76 78 78 76 73 72 67 61 57 54 56 59 63 66 69 72 74
51 53 55 58 62 66 70 73 75 77 79 79 77 73 70 69 66 59 53 56 61 59 58 60 62 65 68
56 58 61 65 68 72 76 80 81 82 80 76 73 69 66 65 64 58 56 56 52 53 54 53 54 55 57
62 65 69 72 74 78 81 84 85 82 78 75 69 65 62 60 61 61 56 54 49 48 47 49 51 49 47
65 69 72 74 78 81 84 87 85 82 75 66 62 61 61 63 62 60 55 48 48 43 42 42 41 43 47
70 72 74 77 81 84 87 86 83 79 72 64 58 56 58 62 61 61 52 47 42 40 37 38 36 36 40
73 74 77 81 84 86 85 83 79 71 66 62 60 59 59 61 64 54 45 44 39 34 33 34 34 32 32

GFSFLT2_250_spd_060.txt.gz
Wind_Speed
84 83 83 79 72 65 64 60 56 52 51 50 52 51 55 52 51 47 36 24 20 34 58 67 70 72 76
82 81 78 71 65 64 60 57 52 51 51 51 50 51 51 51 44 40 34 31 27 30 32 53 68 71 80
80 77 70 65 64 60 57 54 51 52 51 50 51 52 50 47 44 40 39 36 32 32 32 43 62 72 78
73 67 64 60 58 56 54 52 51 51 51 51 51 52 47 45 46 48 46 45 42 38 38 41 46 64 79
64 61 56 55 54 52 50 49 50 51 52 52 50 49 51 51 50 49 50 50 48 48 49 49 49 52 58
59 55 53 51 51 49 49 50 51 51 50 50 52 53 54 55 54 54 55 55 54 54 57 59 59 60 61
54 52 51 50 50 49 48 47 48 52 52 50 52 56 58 60 62 63 63 62 61 62 64 65 67 69 69
49 48 47 45 44 45 47 49 50 51 53 54 56 60 64 66 67 68 69 68 65 66 67 66 67 66 67
48 46 45 47 48 49 50 51 52 54 57 60 64 67 70 72 72 72 72 70 68 66 64 62 61 62 63
54 53 53 52 52 52 53 55 57 61 64 68 70 73 76 77 77 75 72 70 66 63 61 59 58 57 58
59 59 57 56 55 57 58 61 64 67 69 72 73 76 79 81 78 75 71 65 61 59 57 55 55 56 60
59 60 60 60 61 61 63 65 67 69 71 74 77 80 83 83 79 73 64 61 60 56 55 55 59 60 62
61 62 62 64 66 66 68 69 70 71 75 77 81 85 84 82 78 69 62 60 58 58 59 60 59 57 55
63 63 64 65 66 67 67 70 73 75 77 81 85 84 83 78 71 68 65 63 58 56 58 59 57 52 47
65 64 64 65 66 67 68 71 76 78 82 83 83 83 78 72 70 67 66 62 57 57 58 57 51 46 45
65 65 65 66 67 68 70 75 79 84 85 82 78 70 68 70 68 68 64 60 57 55 54 53 45 39 39
67 67 67 67 69 71 75 79 84 84 82 76 66 65 64 66 71 64 60 53 49 48 46 43 39 31 33

GFSFLT2_250_spd_063.txt.gz
Wind_Speed
98 90 90 88 85 81 78 72 66 61 58 55 53 50 49 48 45 47 45 38 36 31 27 23 17 46 60
85 84 86 83 80 77 71 66 62 56 53 51 49 48 47 46 44 42 40 36 38 37 33 26 22 33 58
83 83 83 79 76 70 64 59 56 51 49 48 47 48 48 45 41 37 38 39 38 36 36 34 29 34 33
81 78 78 76 69 63 58 54 50 49 47 47 48 48 46 42 42 41 38 38 38 38 38 38 38 38 40
74 76 74 69 61 56 54 52 50 49 49 48 46 45 45 43 42 42 42 43 44 44 44 45 46 45 47
74 75 72 64 57 54 50 46 45 44 44 47 48 47 46 47 46 47 49 50 51 52 52 51 52 53 54
73 75 69 61 56 54 53 51 51 51 50 49 50 51 51 52 53 55 57 58 58 59 60 60 58 56 58
72 70 69 61 57 56 56 57 57 56 56 55 55 56 57 59 60 61 63 63 64 65 66 66 64 63 62
69 69 68 66 60 58 58 59 59 60 61 61 60 60 61 62 64 67 68 68 70 71 71 69 65 63 62
70 69 67 63 62 61 60 61 61 63 64 66 66 66 65 67 69 71 71 72 74 74 72 68 63 61 60
72 69 68 63 60 60 62 63 64 65 65 66 65 66 68 70 72 73 75 77 78 74 69 63 58 57 58
73 73 72 69 64 64 64 65 65 64 66 65 66 67 70 74 75 77 79 78 77 73 64 60 60 60 60
74 76 75 69 65 66 65 66 65 65 65 66 67 70 73 76 80 83 81 77 69 61 60 63 64 62 61
77 75 71 68 67 67 66 67 67 67 67 68 70 73 76 80 84 83 77 68 61 61 62 62 63 63 62
76 71 69 70 69 67 68 68 69 69 69 71 73 75 79 83 83 76 67 62 62 62 61 61 62 61 60
69 70 70 65 68 70 69 70 71 71 71 71 74 77 80 82 75 67 63 61 61 60 58 56 57 53 49
70 65 65 67 69 70 72 72 72 72 72 73 75 76 76 71 68 63 62 59 54 55 53 49 47 44 36

GFSFLT2_250_spd_066.txt.gz
Wind_Speed
116 115 110 109 97 93 87 82 78 73 68 61 55 49 44 42 40 39 38 38 40 36 36 34 31 28 26
113 107 99 88 88 76 80 80 74 69 62 55 49 44 41 39 38 38 38 36 32 34 32 33 31 26 23
94 89 87 80 74 76 79 75 71 66 58 49 45 43 40 38 38 37 36 37 35 32 32 29 29 29 27
85 81 76 71 72 76 73 73 69 63 55 47 43 42 40 40 39 39 39 36 35 34 34 36 36 35 32
77 73 70 69 71 70 71 71 68 60 54 51 47 46 45 47 45 44 43 42 40 40 41 43 43 43 42
67 68 66 66 68 68 71 68 67 58 52 52 51 50 51 51 50 49 48 48 47 47 48 48 48 47 47
64 63 65 65 65 70 68 68 65 63 58 54 52 53 53 53 53 54 54 53 53 53 54 54 53 52 52
62 65 67 66 67 68 69 68 65 62 61 58 55 54 55 57 58 57 57 57 58 58 58 59 58 57 59
61 65 65 65 67 70 69 69 67 67 65 61 60 59 60 59 58 60 59 59 59 59 61 62 62 64 67
61 66 67 69 69 70 71 70 70 71 66 60 61 61 61 61 60 60 60 60 61 63 65 66 68 71 72
65 67 66 68 69 70 71 71 71 74 66 63 62 61 61 61 61 62 62 62 64 67 69 71 74 75 73
66 65 66 69 71 72 72 73 75 69 64 64 63 61 62 63 64 64 64 65 68 70 73 76 77 74 70
67 68 69 73 75 75 72 74 72 68 65 62 63 64 64 67 70 67 68 70 71 73 75 75 73 68 62
69 71 72 72 74 72 75 73 70 64 62 63 64 67 69 69 71 71 71 73 73 73 71 67 62 62 62
70 71 73 76 73 75 73 69 65 63 62 63 64 65 67 68 69 70 72 73 71 68 59 60 61 60 60
74 75 71 74 77 72 68 65 64 62 64 66 68 69 69 72 72 75 73 68 63 57 57 56 61 59 54
67 71 74 75 70 68 64 62 62 64 67 70 70 70 73 75 78 71 67 60 57 56 52 52 57 55 49

GFSFLT2_250_spd_069.txt.gz
Wind_Speed
101 103 102 101 97 98 92 88 83 75 75 73 69 65 59 51 45 40 38 35 33 34 34 33 32 32 29
97 94 93 86 84 86 81 76 73 69 69 69 65 61 55 50 43 35 34 33 31 31 33 33 33 31 29
95 88 90 87 87 79 73 70 68 68 65 66 63 59 54 48 44 42 38 36 35 35 34 34 34 33 31
91 89 86 82 78 74 68 64 66 64 65 64 64 59 55 49 45 44 44 42 39 36 36 35 36 36 36
87 86 84 80 74 69 62 66 61 64 64 63 63 58 54 53 49 47 46 45 44 42 41 41 40 41 42
83 80 79 73 73 62 61 59 63 66 59 61 63 61 58 55 53 50 49 48 47 47 48 48 47 47 46
76 75 71 66 59 58 60 61 64 63 63 63 63 62 59 58 58 53 51 51 51 51 51 52 52 50 50
70 67 62 54 55 55 58 63 63 64 65 64 62 62 62 62 62 55 53 54 54 53 52 51 52 53 52
61 56 51 53 52 57 62 63 64 66 67 66 64 65 63 64 61 55 55 55 55 54 54 53 54 56 57
52 48 49 53 55 57 60 62 66 66 68 67 68 67 65 68 63 59 54 54 55 55 55 56 57 59 61
47 47 52 55 59 61 63 65 66 69 68 67 69 66 70 67 63 58 54 55 57 58 59 60 61 61 64
51 53 57 58 60 63 66 68 68 70 70 67 70 69 72 65 61 57 55 57 59 58 59 60 62 65 68
54 57 56 61 63 67 68 69 69 70 69 72 70 71 67 63 61 58 59 60 63 63 64 65 67 71 73
59 58 61 64 67 70 70 70 71 71 66 71 71 67 64 62 62 62 63 67 66 67 68 70 71 71 70
61 64 66 68 70 70 70 71 67 66 69 71 68 66 63 62 64 65 69 70 70 70 70 71 71 66 60
66 68 70 71 70 69 67 67 69 71 70 68 67 64 62 65 66 71 73 72 71 71 70 68 67 61 58
66 67 66 65 66 66 67 71 72 70 68 66 63 62 65 69 73 74 73 72 71 70 65 59 59 64 60

GFSFLT2_250_spd_072.txt.gz
Wind_Speed
100 98 97 97 97 94 92 90 90 88 86 76 71 68 60 61 59 56 52 45 40 39 35 32 31 31 30
99 98 97 95 92 90 87 86 82 81 77 73 68 63 58 57 59 54 51 45 41 39 39 38 35 33 33
95 94 93 92 92 91 88 83 78 72 73 66 64 60 56 55 58 54 53 48 42 40 40 41 40 37 35
94 93 92 92 91 88 80 77 75 71 70 62 58 58 53 56 54 55 53 49 44 43 42 41 42 42 41
95 93 90 87 85 79 74 71 69 66 62 56 57 56 56 54 53 54 53 50 49 46 45 43 43 44 44
88 83 81 78 77 74 71 71 66 60 55 53 54 57 55 56 55 55 57 54 51 47 47 46 45 45 46
79 77 75 73 73 71 69 66 61 52 51 50 55 58 58 58 56 56 58 56 53 52 51 47 48 47 46
74 72 71 69 65 63 62 57 51 49 48 54 57 59 59 58 56 58 60 59 55 56 53 51 50 48 47
68 65 62 59 57 57 53 48 45 48 54 56 59 61 61 61 59 62 64 63 58 58 54 51 49 48 49
62 57 54 55 51 48 47 47 48 53 55 57 62 64 63 63 62 64 66 64 61 60 55 49 48 48 49
53 52 50 47 45 45 47 51 54 56 60 63 65 66 65 66 65 69 68 62 64 58 53 51 50 52 54
49 48 46 44 45 48 52 56 61 60 62 65 64 66 68 66 68 71 63 65 62 57 54 53 54 56 59
46 45 45 47 50 55 60 63 64 66 65 63 66 68 67 69 70 65 66 64 60 56 55 56 58 61 64
47 49 53 55 58 62 64 64 61 62 65 67 70 71 71 69 70 69 66 64 59 57 60 61 63 67 69
46 49 52 54 55 56 58 60 63 67 68 70 71 69 67 69 70 68 67 63 58 58 61 66 69 71 71
47 50 54 57 59 63 65 66 67 68 68 66 67 70 69 68 68 68 65 62 62 63 66 70 73 69 68
56 55 55 58 59 61 62 64 65 66 68 68 67 66 67 67 67 66 66 66 68 70 70 69 69 72 68

GFSFLT2_250_spd_075.txt.gz
Wind_Speed
97 95 93 91 89 89 86 86 86 84 83 83 82 81 76 69 67 59 53 53 48 45 42 38 37 35 35
95 93 93 90 90 89 88 86 84 85 85 84 81 77 68 65 61 55 50 49 47 44 41 40 38 37 36
97 95 94 92 90 90 89 90 88 86 85 80 73 72 63 61 56 51 49 48 47 45 42 43 43 42 39
96 96 94 94 92 91 90 87 84 80 79 74 69 63 60 58 55 48 49 47 48 46 44 46 46 43 39
100 98 94 90 88 83 80 78 77 75 70 65 63 60 57 55 49 46 48 46 49 49 46 48 49 46 42
95 91 87 83 80 77 75 71 71 66 63 61 59 55 52 45 45 48 49 48 49 48 49 50 51 51 47
85 84 81 77 74 71 70 66 63 59 58 55 52 49 43 44 45 51 49 51 53 51 51 53 53 53 51
80 77 72 69 66 63 61 58 54 54 53 50 47 44 43 43 47 52 52 53 56 54 54 56 56 58 51
73 70 67 63 62 58 55 51 50 48 47 45 43 43 44 47 51 53 55 57 57 56 59 59 59 58 54
63 61 59 58 54 50 49 48 47 45 43 43 45 47 49 52 54 56 59 57 57 58 59 61 61 55 57
53 52 51 49 46 47 47 45 43 42 44 46 49 51 53 55 59 58 60 58 58 60 61 63 60 59 59
43 42 43 43 44 44 44 44 45 47 49 52 53 54 57 59 61 63 59 61 64 65 66 65 62 63 59
39 39 39 39 39 41 44 46 50 52 53 53 55 59 63 63 65 63 65 65 67 67 66 65 66 64 61
35 34 36 39 42 44 46 47 49 52 56 58 58 57 59 62 66 67 67 67 66 65 69 68 66 63 59
36 36 38 40 40 43 46 50 52 54 57 60 62 63 66 68 70 69 67 67 65 67 68 68 64 61 60
38 39 40 42 44 45 48 53 56 59 62 64 65 65 66 68 69 70 71 70 68 65 62 63 65 64 66
39 40 42 44 47 48 51 53 56 59 62 64 66 66 69 72 72 72 70 66 65 65 64 66 71 71 68

GFSFLT2_250_spd_078.txt.gz
Wind_Speed
115 111 109 105 101 99 95 92 88 86 83 82 80 79 79 76 72 69 65 62 55 48 41 41 39 37 34
113 110 107 105 101 96 94 91 88 86 85 85 82 80 76 73 68 64 61 57 52 46 40 39 38 36 35
112 109 104 100 98 96 94 91 89 88 86 82 78 73 71 69 65 61 56 51 48 43 39 39 38 39 37
109 107 103 100 98 97 93 89 85 81 77 75 71 68 67 63 63 56 53 49 45 39 37 39 39 40 38
109 106 103 98 96 93 89 83 80 77 75 70 66 64 62 58 55 52 49 45 42 36 40 41 41 41 40
105 101 97 93 88 85 82 78 75 73 68 65 61 57 56 54 51 48 45 42 38 41 41 42 44 45 43
99 96 91 87 83 84 80 74 72 67 62 59 55 51 49 47 45 42 40 38 39 42 42 44 46 48 47
92 88 83 77 73 72 68 66 65 61 59 55 49 47 45 43 40 38 37 39 42 44 44 47 48 50 49
73 68 64 61 59 59 59 58 57 55 51 49 46 44 42 40 39 40 41 44 46 47 48 50 51 52 50
58 55 52 50 49 49 51 49 49 48 46 45 44 43 42 40 42 45 45 47 48 50 51 51 54 56 53
50 47 45 42 40 41 42 42 42 42 44 44 44 43 42 42 44 45 47 48 52 53 53 54 56 56 57
46 42 39 37 36 36 36 37 37 39 40 41 43 44 44 45 46 47 49 51 52 57 59 60 61 61 62
42 39 36 33 32 32 33 33 34 35 37 38 43 46 48 48 49 50 51 55 58 60 62 63 62 64 65
39 38 37 36 36 36 37 37 38 40 42 45 47 49 50 52 56 57 58 61 62 62 66 68 68 68 66
37 36 36 37 36 36 36 37 38 39 42 44 45 46 49 53 57 59 61 65 67 69 71 69 68 67 68
34 34 33 33 35 37 39 41 42 44 47 50 51 53 54 57 60 63 65 67 67 69 69 72 73 70 70
36 36 35 34 34 36 38 40 42 46 49 52 54 57 60 62 64 66 68 68 69 69 69 69 72 71 69

GFSFLT2_250_spd_081.txt.gz
Wind_Speed
137 140 142 141 139 129 122 119 112 103 99 92 87 83 79 77 75 73 69 64 61 58 54 49 46 40 38
142 140 142 134 126 123 120 111 107 102 96 91 87 83 79 77 72 68 64 61 57 54 51 47 43 37 38
144 146 135 131 126 119 113 108 101 96 92 88 84 80 75 71 67 64 59 58 55 55 50 47 41 37 37
143 135 128 122 116 109 102 99 95 91 87 82 79 75 69 66 62 58 55 54 53 51 47 44 40 37 37
133 125 118 109 104 103 97 93 91 89 85 80 75 72 67 63 59 56 53 51 50 47 44 43 40 38 39
116 110 105 103 100 96 93 89 87 82 78 73 67 64 62 59 54 50 49 48 45 44 43 41 40 39 41
106 103 99 96 94 89 81 73 70 67 63 61 57 54 53 51 49 47 45 44 43 42 41 40 39 42 44
100 97 90 86 78 69 63 58 57 55 51 50 47 46 46 45 44 43 43 41 40 40 39 39 42 45 46
91 84 76 69 61 57 54 51 47 45 44 42 42 41 41 42 41 41 41 40 39 38 39 41 45 49 48
74 68 63 58 54 51 47 44 41 39 37 38 39 39 40 40 39 39 39 42 43 45 46 49 52 51 50
63 59 55 51 47 44 40 38 36 34 34 35 35 35 36 38 38 39 39 40 41 43 46 47 49 51 52
57 53 49 46 43 39 37 34 32 32 31 32 32 33 32 33 34 33 35 39 42 45 49 50 51 53 53
53 49 45 43 40 38 36 33 32 33 32 31 30 31 32 32 35 39 41 43 44 47 49 52 55 56 59
48 45 42 40 38 36 34 33 32 33 32 32 33 35 37 40 43 44 47 49 50 53 56 59 61 64 65
44 42 38 37 34 32 32 32 31 32 32 33 34 36 39 42 43 44 46 48 51 55 58 61 63 65 68
42 37 36 37 35 33 33 31 32 34 34 35 37 40 42 45 49 50 52 54 57 60 63 66 69 70 73
38 36 37 37 36 35 34 34 35 36 39 40 42 46 48 49 51 54 54 56 59 62 65 68 73 74 74

GFSFLT2_250_spd_084.txt.gz
Wind_Speed
131 128 122 133 136 137 140 144 144 142 143 130 116 101 92 85 82 78 75 71 68 67 63 60 54 52 48
128 133 138 136 145 144 150 146 141 141 129 113 100 92 87 83 79 76 73 68 64 63 59 54 52 49 46
136 138 140 144 150 148 145 138 141 121 108 98 94 89 85 82 77 73 70 64 60 56 52 49 49 48 45
143 143 151 153 147 147 145 131 117 105 99 96 93 88 81 79 74 69 63 61 56 53 49 48 47 46 45
149 158 159 152 159 140 124 112 104 101 96 94 86 78 70 65 61 58 55 53 49 48 48 46 45 45 44
161 155 156 153 129 119 109 105 101 94 86 76 67 63 57 52 49 47 45 46 46 43 42 42 42 42 43
159 153 138 125 115 108 105 100 90 76 69 62 58 53 49 45 40 37 37 38 37 38 38 40 41 42 42
144 128 116 109 105 101 94 81 71 64 59 55 51 47 42 39 35 34 34 34 34 35 36 38 40 41 43
120 109 103 99 96 86 73 66 58 54 50 48 44 40 36 33 32 32 33 32 33 35 37 38 39 42 42
105 99 93 88 79 67 60 57 52 47 44 40 39 36 32 30 30 30 31 32 34 36 39 41 42 43 41
94 88 80 72 64 56 54 51 47 43 39 35 32 30 28 27 28 27 27 27 27 30 34 39 43 46 49
81 73 64 59 56 53 48 46 40 38 34 29 29 28 29 29 27 29 29 29 30 31 32 36 42 48 50
66 59 55 54 53 50 45 40 37 35 32 29 27 27 27 27 30 32 32 31 33 35 36 38 39 45 50
56 54 53 51 49 46 43 38 37 34 33 31 30 30 29 29 30 32 33 34 36 39 41 43 46 48 50
53 53 50 48 46 43 40 37 36 34 32 32 31 31 32 34 34 36 37 38 42 44 46 48 50 52 55
51 50 49 45 42 41 38 35 35 36 36 34 34 36 36 36 37 38 41 43 45 48 51 54 56 58 61
47 46 44 41 40 39 37 36 36 36 36 36 37 40 42 43 44 45 47 49 50 51 54 57 61 62 63

GFSFLT2_250_spd_087.txt.gz
Wind_Speed
100 117 113 108 119 127 124 132 134 134 139 144 148 153 140 126 98 94 88 80 75 69 64 58 55 50 47
115 108 109 123 126 129 135 136 140 142 145 149 151 146 123 103 94 90 86 80 74 68 61 58 54 50 46
116 118 124 131 134 137 138 141 137 144 147 146 145 135 108 99 94 88 80 71 63 59 56 53 50 47 44
126 134 135 137 139 142 146 153 155 157 153 153 126 109 101 94 86 72 62 56 53 51 49 49 45 45 44
135 138 144 143 143 143 147 148 150 153 143 127 114 103 95 82 69 62 52 48 45 43 41 42 41 41 41
147 151 151 149 147 146 144 148 152 154 146 115 105 96 82 69 59 52 46 42 39 36 35 36 38 38 41
146 155 150 154 146 151 155 153 155 133 112 105 95 82 69 58 51 44 40 37 35 33 33 34 35 38 40
156 152 154 151 160 157 156 150 135 113 102 93 80 67 58 50 44 40 37 35 32 30 29 30 32 35 38
156 154 157 155 159 156 159 141 114 102 90 77 64 57 49 43 39 36 33 31 28 27 28 29 30 33 35
161 160 151 142 148 147 120 101 96 89 71 62 55 49 42 38 33 29 28 27 26 26 28 30 30 32 36
162 158 137 152 145 117 100 90 82 70 59 54 51 44 37 32 31 29 28 27 27 28 28 29 30 31 35
160 168 150 125 106 100 88 76 66 58 53 49 47 41 35 31 27 28 27 26 26 27 28 28 29 31 33
134 120 107 96 92 86 72 61 56 53 49 46 43 37 33 31 28 28 27 26 27 28 31 33 33 33 34
108 99 89 85 78 68 58 53 52 50 48 43 39 34 32 31 30 31 30 29 29 29 30 32 33 36 39
87 84 79 70 62 56 51 51 50 48 45 40 36 34 32 31 31 32 32 32 34 35 37 38 39 41 42
76 69 63 57 53 50 49 48 47 45 41 38 35 34 35 36 35 36 36 36 37 39 41 42 44 45 47
63 57 54 50 49 48 47 45 44 42 40 38 36 36 35 37 37 38 40 42 44 45 47 49 49 49 51

GFSFLT2_250_spd_090.txt.gz
Wind_Speed
102 103 104 102 102 104 102 104 101 108 107 111 122 130 139 138 142 139 133 120 100 87 75 64 57 51 49
108 107 109 104 108 106 105 108 113 114 109 120 129 138 147 145 139 130 117 104 90 77 63 54 48 46 46
112 111 110 113 112 112 113 112 109 113 123 129 137 146 145 142 139 129 105 97 80 63 55 49 44 41 40
113 117 115 117 114 115 116 113 118 125 128 136 146 146 144 146 126 122 104 87 66 55 49 43 39 38 38
116 119 119 123 119 120 119 123 131 134 134 146 145 142 140 130 118 100 88 74 60 52 45 38 37 37 36
120 123 124 124 127 125 129 136 138 138 143 144 145 141 135 137 118 94 80 65 55 45 39 35 34 34 32
127 126 127 131 136 138 141 139 141 140 150 149 144 131 135 107 98 84 68 58 50 42 35 31 30 31 33
134 134 134 137 141 139 147 151 151 153 149 150 143 135 116 96 84 71 60 52 44 39 33 28 27 28 30
137 137 142 142 145 151 155 150 146 148 143 135 118 113 95 89 73 61 53 47 40 35 30 27 26 28 29
141 145 145 151 153 156 151 158 153 144 117 124 125 98 88 75 63 55 47 41 37 34 30 28 28 28 29
148 145 154 159 158 153 149 143 140 129 136 111 90 87 72 63 55 49 44 37 34 32 31 29 30 31 32
160 159 160 164 160 152 112 135 137 130 109 93 83 71 59 54 49 45 40 35 31 28 29 30 30 33 34
160 158 163 148 160 162 150 117 102 97 86 76 67 58 50 48 45 42 38 33 31 28 27 29 30 31 34
148 154 137 133 123 108 102 95 85 76 67 61 55 51 46 44 41 38 36 34 31 29 28 28 30 32 32
113 108 106 107 97 90 84 77 68 62 56 51 49 45 43 41 38 36 34 33 31 30 30 31 31 32 33
96 91 90 81 77 71 67 59 55 51 47 45 43 42 41 38 37 35 34 35 34 34 34 33 33 33 34
81 79 73 70 63 58 53 50 47 44 43 41 40 41 39 37 35 36 36 36 36 36 38 38 37 39 41

GFSFLT2_250_spd_093.txt.gz
Wind_Speed
94 96 93 98 102 102 97 101 101 100 100 99 101 102 104 105 106 110 118 124 131 128 109 98 83 74 54
97 102 102 105 108 103 102 102 103 104 106 104 104 109 108 107 108 117 124 128 128 130 121 91 77 56 46
101 104 105 106 105 103 107 104 107 108 108 108 109 107 112 116 118 121 132 149 136 125 106 91 73 53 42
105 107 105 108 105 103 110 111 110 113 110 114 111 114 119 124 122 129 132 140 133 126 98 82 61 49 38
104 105 109 108 108 111 109 114 113 115 112 117 115 120 124 131 130 134 137 137 139 122 93 75 54 43 37
105 108 112 110 110 113 118 110 119 120 119 124 126 134 134 132 131 144 139 139 137 99 89 65 48 42 36
113 108 110 114 117 119 115 122 123 125 127 132 131 135 136 142 146 137 127 137 116 85 74 57 45 39 33
113 112 116 119 122 128 123 130 128 131 136 136 136 137 143 149 136 148 128 101 84 76 60 50 43 35 32
120 126 128 130 131 131 134 137 134 137 141 138 142 144 148 150 138 124 102 82 74 62 53 45 40 34 31
132 134 135 130 134 133 137 137 134 138 139 144 145 141 138 132 103 95 83 71 63 52 46 41 36 32 30
134 138 137 136 136 135 136 136 141 143 143 146 140 140 132 106 89 80 68 63 51 45 41 36 34 31 30
145 141 142 139 139 145 142 141 145 139 142 138 142 125 100 83 72 65 59 53 45 39 37 34 33 31 30
150 149 148 148 145 144 146 147 151 149 131 122 116 94 77 65 60 56 49 47 41 37 33 32 32 31 31
159 154 157 147 154 150 146 133 116 114 99 95 83 72 62 56 53 47 44 42 38 37 34 32 30 31 31
144 145 148 145 133 117 107 102 99 94 79 71 64 56 52 50 47 42 40 39 36 34 33 32 31 30 30
124 118 113 109 108 103 96 87 79 67 62 57 50 48 46 45 41 38 39 37 35 34 34 34 32 30 29
112 109 107 105 98 90 78 66 59 54 51 47 44 44 43 41 37 37 37 36 35 35 35 33 32 31 31

GFSFLT2_250_spd_096.txt.gz
Wind_Speed
92 92 95 91 98 99 102 103 100 95 94 93 98 97 90 94 94 95 94 97 104 105 106 122 121 129 100
100 101 103 101 103 104 94 99 99 98 96 100 100 98 97 97 95 97 98 98 106 111 115 124 127 131 79
103 101 99 104 105 108 101 101 97 95 96 102 103 98 100 97 100 99 105 100 116 114 117 119 128 130 81
106 108 107 105 107 110 106 99 96 100 106 99 104 98 104 101 104 106 117 115 117 123 122 127 129 126 80
120 115 109 107 111 105 103 104 103 101 99 101 103 102 104 107 114 120 121 118 120 123 128 131 132 105 72
119 122 111 98 101 107 102 98 100 99 106 104 105 107 115 120 125 126 125 123 125 127 131 130 127 82 63
106 106 102 106 92 102 99 104 104 105 113 112 117 113 123 130 128 126 128 127 124 131 128 129 100 70 55
108 109 102 101 102 97 109 107 111 114 110 118 127 127 129 129 129 131 133 131 134 131 118 97 82 60 48
113 114 112 111 110 108 109 113 119 118 126 126 126 126 129 130 133 134 132 128 131 117 89 72 61 51 42
122 115 114 115 116 118 121 123 127 125 126 129 131 129 132 136 135 135 130 122 111 87 77 64 54 45 38
129 130 126 128 126 124 125 127 126 123 127 131 133 133 136 135 133 129 120 102 90 75 63 54 47 42 37
133 136 132 133 136 128 126 129 128 132 130 129 131 137 128 126 123 108 87 74 66 59 55 48 42 38 35
145 140 139 136 136 136 135 139 132 131 128 133 127 119 110 101 97 81 68 59 54 53 48 44 39 36 35
149 147 146 141 140 139 141 137 128 128 121 111 107 99 93 82 77 66 55 50 50 47 43 41 38 34 33
152 153 152 140 135 131 125 119 117 107 102 98 91 85 81 75 62 53 48 45 45 41 40 40 37 34 32
133 132 133 129 124 123 119 116 111 100 97 87 83 79 68 58 52 46 43 42 40 37 39 38 36 33 32
122 122 119 118 116 116 115 109 106 100 92 86 77 65 55 50 47 42 39 39 38 36 37 36 34 34 37

GFSFLT2_250_spd_099.txt.gz
Wind_Speed
80 79 79 80 88 87 91 93 94 89 87 92 93 93 92 100 91 90 93 85 90 86 88 90 95 103 108
88 85 89 85 93 91 90 98 96 96 93 90 93 94 103 109 101 93 93 93 89 94 99 99 106 110 113
96 96 94 94 98 102 106 103 99 98 99 102 100 103 112 104 97 91 92 91 92 97 98 106 109 114 114
103 109 103 108 107 107 102 100 102 102 101 105 108 107 101 90 92 91 90 96 96 103 106 112 113 116 118
109 111 113 109 109 105 108 109 112 111 110 117 113 103 97 92 93 93 98 101 103 110 116 118 119 121 121
108 114 117 110 110 118 120 115 112 115 115 104 97 92 95 94 91 95 100 99 110 116 116 120 122 120 115
107 108 108 115 111 106 111 112 109 98 102 100 91 88 96 98 94 101 104 109 116 119 117 114 112 116 112
100 103 105 101 106 109 109 108 108 103 97 96 97 97 101 104 103 106 106 117 118 117 120 112 110 114 93
115 115 111 109 109 111 115 109 110 107 105 109 107 104 104 104 107 112 113 115 117 123 118 107 95 86 77
119 117 116 115 113 114 114 114 114 111 114 111 108 110 111 116 115 111 110 113 118 114 103 93 81 75 71
126 123 122 120 118 116 114 116 117 116 121 122 120 116 117 114 116 118 110 114 109 104 95 81 74 71 63
136 135 136 136 135 132 129 128 126 127 126 120 125 124 122 120 122 119 121 114 100 94 83 75 72 65 55
142 139 136 135 133 132 129 130 134 130 127 129 128 125 124 119 116 114 105 94 90 82 76 72 67 57 48
145 148 149 146 145 145 141 139 136 134 130 132 130 124 120 115 108 102 95 87 84 81 73 68 59 50 42
148 148 147 144 144 145 143 143 136 135 131 122 117 114 108 102 97 96 88 86 82 74 68 61 51 44 39
136 137 135 136 134 135 133 133 131 125 119 112 111 106 98 98 94 91 87 82 72 65 59 52 45 40 38
131 129 128 129 127 126 125 125 125 119 112 109 104 101 96 96 93 87 80 68 62 57 52 47 41 37 37

GFSFLT2_250_spd_102.txt.gz
Wind_Speed
84 81 74 78 79 78 78 77 75 75 74 74 74 84 85 83 80 79 84 87 93 90 92 80 71 78 78
88 83 84 84 85 87 79 77 75 79 84 87 86 84 87 87 90 90 93 96 95 93 89 79 79 80 85
92 90 91 89 86 84 89 91 91 90 82 83 87 94 92 90 89 95 99 95 92 86 85 80 81 86 93
97 96 95 94 92 90 91 90 86 85 90 90 90 96 92 91 95 97 96 94 89 84 84 82 81 89 95
104 103 97 92 98 98 91 95 100 103 103 102 98 95 101 99 96 90 96 86 86 78 82 86 90 96 100
107 103 103 101 98 102 111 118 106 97 94 93 101 96 100 98 90 104 91 80 81 81 88 91 96 96 102
112 111 109 107 106 104 108 105 110 113 102 99 106 97 89 95 92 91 89 79 85 90 92 98 101 103 104
99 101 103 105 107 99 94 96 101 102 91 94 85 83 84 91 88 93 89 89 88 92 95 97 103 104 109
99 95 88 84 86 77 80 84 88 86 86 77 85 89 93 92 97 98 99 97 95 98 105 105 111 110 109
114 110 106 104 102 101 95 95 95 91 90 95 97 103 103 103 105 101 102 109 114 112 109 107 112 110 95
127 125 119 114 111 110 109 106 107 110 107 111 115 113 110 109 111 113 112 120 115 109 108 110 108 91 86
142 135 134 132 132 129 121 123 126 120 121 121 119 124 121 123 125 121 121 110 109 114 108 105 92 87 81
138 137 135 136 132 128 122 123 127 126 123 121 118 118 118 119 123 124 120 117 115 105 98 92 84 81 77
145 142 145 141 138 132 128 127 131 132 125 125 126 120 119 118 118 116 119 116 110 100 94 87 84 80 77
141 140 140 142 145 141 139 137 132 130 131 130 127 123 125 121 121 122 119 112 104 97 92 87 83 79 76
138 141 141 138 133 138 141 141 136 136 135 133 132 131 129 125 121 118 114 109 100 94 89 86 81 77 73
102 113 131 135 131 129 125 125 125 125 128 126 124 124 126 122 118 114 108 107 100 96 87 83 77 75 64

GFSFLT2_250_spd_105.txt.gz
Wind_Speed
88 87 88 87 91 90 89 90 89 88 79 67 68 72 70 77 71 63 69 75 73 73 74 75 79 81 81
92 92 91 93 94 96 94 95 88 77 79 76 76 81 73 65 72 77 79 77 72 72 78 84 86 87 84
96 96 96 94 88 82 82 84 82 82 78 82 84 73 73 79 77 73 73 75 83 89 88 86 83 84 86
91 84 83 85 87 85 88 89 85 88 87 87 83 84 84 82 77 77 76 85 90 91 86 80 84 73 68
87 89 92 92 90 90 92 93 94 95 93 96 95 91 83 82 85 85 88 89 88 91 87 78 72 69 71
89 91 93 95 93 93 94 95 100 100 98 91 91 92 95 95 94 92 96 92 83 79 75 67 67 69 72
98 96 95 97 97 98 99 99 100 102 102 103 104 103 106 100 100 90 91 86 79 70 70 68 71 74 78
102 104 105 111 110 106 107 108 108 106 104 103 98 95 94 95 91 85 81 78 69 66 64 68 77 84 86
103 103 101 96 95 97 97 97 103 103 97 92 86 85 84 85 79 73 74 77 70 72 71 77 86 90 88
114 117 115 113 109 105 99 92 88 87 86 85 87 86 83 83 84 82 81 80 83 85 86 90 93 97 103
126 122 119 119 117 118 117 111 109 100 99 94 88 90 94 91 91 91 87 89 95 95 100 100 102 108 105
136 136 135 131 127 126 123 120 120 118 119 112 106 105 101 100 92 98 103 104 108 109 110 114 113 108 106
135 135 141 143 139 135 134 132 128 127 123 122 119 117 115 117 117 116 116 119 118 119 118 112 111 107 107
139 142 142 140 140 142 143 141 136 135 133 130 128 127 124 124 126 129 128 127 123 118 113 111 105 109 106
110 118 130 140 144 142 141 139 135 137 140 139 136 136 133 132 126 122 116 111 112 111 109 108 108 104 103
90 96 101 110 118 133 138 141 134 131 138 136 134 131 129 126 124 122 119 118 114 112 111 109 107 105 101
76 79 84 90 96 101 113 136 138 136 134 130 133 133 130 126 123 120 119 115 110 111 111 109 107 100 101

GFSFLT2_250_spd_108.txt.gz
Wind_Speed
75 72 72 72 72 73 79 83 81 76 80 80 81 79 83 83 83 82 75 73 68 71 70 70 64 69 64
78 78 78 78 76 82 83 84 86 85 84 85 86 88 88 89 86 82 71 69 74 70 65 68 72 65 70
80 81 83 83 83 87 90 91 90 92 94 92 94 93 90 85 78 71 70 68 74 72 69 76 74 72 74
83 84 86 86 89 92 90 90 91 91 94 93 90 87 90 86 80 78 73 75 74 77 78 75 75 73 78
91 89 88 92 95 95 94 95 93 92 90 90 89 89 88 85 86 82 83 81 80 82 86 79 77 82 87
94 93 93 94 102 104 101 95 98 96 93 89 91 90 91 89 86 85 87 85 84 80 79 84 90 95 90
89 91 94 98 99 99 97 97 96 95 94 92 90 89 89 86 87 89 89 90 88 91 94 89 83 66 67
93 91 88 91 97 97 99 98 97 95 93 93 94 95 95 92 94 97 97 97 97 94 89 81 66 63 60
103 102 100 100 101 98 94 97 97 98 101 101 105 104 101 97 97 93 89 90 86 82 74 69 66 61 63
107 109 108 107 108 109 109 108 107 98 96 96 94 96 95 91 87 86 82 78 75 76 79 76 70 70 71
112 115 118 117 116 115 114 114 111 108 109 111 107 102 91 81 80 82 79 76 77 79 84 84 78 75 76
121 121 122 121 124 127 125 124 123 117 115 114 115 114 109 105 104 90 82 80 79 84 88 88 86 87 88
134 130 133 131 131 128 127 129 132 128 124 123 120 117 117 115 116 115 115 114 112 109 102 98 95 96 97
126 130 140 141 136 138 135 130 133 127 127 127 132 128 126 124 121 120 116 114 110 109 107 104 106 107 108
109 110 115 122 124 132 131 136 130 127 127 131 127 129 130 132 129 127 124 118 117 117 116 115 114 115 112
92 93 96 99 104 110 114 121 125 134 139 129 133 132 129 124 126 133 128 126 126 122 118 118 116 113 114
79 79 81 83 86 91 95 98 104 109 120 129 130 135 131 128 126 133 127 124 124 122 117 113 111 106 105

GFSFLT2_250_spd_111.txt.gz
Wind_Speed
103 102 101 98 96 88 84 79 78 74 67 67 69 70 69 75 78 79 80 78 79 75 75 77 75 66 63
104 101 103 98 88 83 80 78 76 71 68 75 72 72 75 76 79 76 78 79 77 80 78 77 73 68 64
95 93 89 88 82 81 80 79 76 76 73 76 73 78 80 79 81 81 84 85 81 77 76 74 76 69 68
78 79 80 77 79 81 83 82 82 83 85 84 82 81 79 80 81 84 84 88 86 84 84 83 76 65 68
75 76 78 80 81 84 85 84 83 83 86 91 92 88 87 90 90 91 88 88 87 84 81 75 69 68 69
72 76 75 76 78 79 83 86 84 85 88 87 91 94 95 91 92 93 91 92 81 80 81 77 75 75 73
73 74 77 72 76 81 86 86 85 90 93 92 94 93 92 93 96 99 97 88 87 83 81 78 78 76 76
81 84 82 84 84 83 82 86 87 88 91 91 93 92 94 92 89 88 86 83 83 83 83 81 80 83 85
88 90 91 94 94 92 91 93 89 87 87 90 88 88 89 92 92 94 91 87 85 86 85 87 92 89 85
90 91 95 98 99 99 99 100 101 95 95 96 93 88 87 86 87 87 88 88 85 87 86 83 82 79 74
100 100 100 103 103 106 109 107 107 104 104 107 105 103 102 99 94 87 86 86 85 82 83 78 76 72 72
110 112 115 114 115 116 117 116 115 112 114 116 113 112 112 111 109 108 104 103 99 87 81 78 74 73 74
116 116 117 118 118 121 123 121 118 119 118 119 121 122 122 120 115 113 112 106 104 103 98 95 84 75 79
109 109 112 114 117 119 123 128 127 125 123 122 120 121 120 122 122 120 118 115 113 110 108 103 98 97 92
105 106 106 106 109 113 114 118 120 121 124 124 126 123 123 124 121 122 123 122 120 114 113 110 104 103 103
95 97 98 100 102 104 107 109 109 110 110 110 111 119 124 126 124 122 123 120 120 117 116 111 107 104 102
88 89 90 91 91 92 94 96 98 100 101 103 109 113 113 114 118 123 124 120 123 116 114 115 110 109 108

GFSFLT2_250_spd_114.txt.gz
Wind_Speed
102 102 105 105 106 103 101 100 97 97 95 93 92 86 81 74 71 66 61 62 62 64 63 67 68 71 72
99 100 99 100 100 99 101 100 97 97 96 90 85 82 78 69 64 59 61 62 65 69 70 72 71 70 68
89 91 90 90 88 88 90 89 89 90 91 84 79 73 68 64 62 63 67 69 67 70 70 69 69 71 71
88 88 88 87 84 82 81 80 80 80 79 78 79 71 71 69 69 69 67 70 73 75 73 72 71 74 71
83 81 79 78 77 76 77 76 76 74 75 76 71 69 71 71 72 76 74 70 75 79 75 73 72 77 74
73 75 72 75 72 71 72 69 70 74 77 76 75 74 78 77 77 76 79 77 76 75 76 75 79 80 78
71 70 63 69 69 70 70 69 70 76 75 76 81 80 79 81 81 79 79 79 82 84 83 80 81 82 78
70 71 71 78 76 72 75 70 70 73 71 71 72 76 76 79 82 82 83 84 84 84 83 83 81 80 73
74 75 78 79 78 81 80 79 78 78 76 76 75 75 76 82 85 83 85 85 83 85 83 77 76 75 75
79 80 81 82 85 86 85 84 82 83 86 86 86 88 86 85 83 80 82 82 82 80 80 81 78 78 75
85 87 88 88 89 89 90 88 88 87 92 96 96 95 93 93 92 92 93 89 86 84 78 78 75 75 75
92 94 97 99 97 97 97 97 95 94 95 94 94 99 102 100 100 100 98 95 94 90 89 81 77 72 72
104 106 108 108 108 108 107 107 106 105 105 105 103 104 106 104 102 108 108 106 103 100 97 98 98 95 95
114 117 118 118 119 119 118 117 115 114 114 114 112 111 110 113 112 109 111 111 108 106 106 105 101 99 97
106 108 109 112 116 116 121 124 123 121 122 121 121 120 118 115 116 115 115 113 111 110 108 106 103 103 100
102 102 104 105 105 107 107 108 109 110 110 111 113 111 111 111 110 113 114 112 113 111 111 109 106 102 99
96 97 98 99 100 102 103 104 104 104 105 108 110 111 110 108 109 109 112 110 108 107 104 106 101 105 104

GFSFLT2_250_spd_117.txt.gz
Wind_Speed
108 109 109 112 112 111 105 98 97 97 95 95 95 92 92 95 94 88 83 79 76 72 66 57 52 56 59
107 104 105 104 102 101 102 99 92 92 93 93 94 93 92 88 88 84 80 75 68 65 60 51 56 57 56
101 101 100 98 97 96 93 92 87 85 85 83 81 81 82 77 75 78 71 69 62 61 49 46 53 58 62
90 91 91 91 90 89 89 88 86 85 83 81 78 77 76 75 72 73 66 58 59 56 53 56 61 63 61
88 87 88 88 90 90 87 86 85 84 82 80 76 75 72 69 67 66 64 63 65 59 59 62 66 68 69
86 88 88 87 85 82 80 80 80 80 78 73 70 69 70 68 69 70 69 70 67 64 64 65 67 69 70
81 81 81 82 81 79 77 73 72 76 74 69 69 70 70 70 71 70 70 65 62 66 67 67 66 65 64
74 75 75 76 74 74 73 73 72 71 72 69 69 66 63 63 62 65 66 69 66 65 69 72 74 72 72
71 72 73 73 73 73 73 72 71 68 65 63 69 66 65 65 63 63 64 67 71 74 71 70 71 70 73
75 76 75 75 75 74 74 72 71 75 75 77 81 76 70 68 66 68 67 63 65 69 71 72 73 73 75
81 80 79 78 78 77 76 76 75 74 78 79 81 81 77 77 74 74 77 73 74 73 71 69 71 71 70
90 90 90 89 87 86 86 84 83 83 84 82 81 84 83 82 83 84 82 81 80 79 79 80 79 78 76
98 98 99 99 98 96 93 92 91 89 89 92 90 90 87 87 89 88 93 91 91 89 88 86 85 85 83
102 105 106 106 106 106 104 102 98 97 96 97 97 97 97 96 95 93 96 96 93 94 94 93 93 92 91
93 97 100 103 108 110 110 111 108 108 108 108 108 106 103 103 101 101 99 98 98 99 97 94 94 93 92
85 87 89 91 93 97 99 100 103 106 109 115 112 113 114 112 110 110 110 109 107 107 104 103 100 97 95
81 83 86 88 90 91 92 92 94 97 100 102 102 101 102 105 115 117 118 118 117 116 112 109 106 104 103